When you browse on this site, cookies collect data to enhance your experience and personalize the content and advertising you see.
Visit our Privacy Policy to learn more. By continuing to use the site, you agree to this use of cookies and data.
  • In United Kingdom
  • List of Countries
  • For 7 days
  • Water Temperature
  • Weather Map
  • Weather Widgets
  • user-avatar
    Login

    Hourly Weather Melbourne

    Today, 1 June, Monday

    Time Temperature Precipitation Wind Pressure Humidity
    00:00 +10°C° 0 mm 5 mps 753 mmHg 70%
    01:00 +10°C° 0 mm 6 mps 752 mmHg 70%
    02:00 +10°C° 0.1 mm 6 mps 752 mmHg 71%
    03:00 +10°C° 0.1 mm 7 mps 751 mmHg 72%
    04:00 +10°C° 0 mm 7 mps 750 mmHg 74%
    05:00 +10°C° 0.5 mm 7 mps 750 mmHg 76%
    06:00 +10°C° 0.5 mm 6 mps 750 mmHg 79%
    07:00 +10°C° 0.5 mm 5 mps 750 mmHg 81%
    08:00 +9°C° 1 mm 6 mps 751 mmHg 81%
    09:00 +9°C° 1 mm 6 mps 751 mmHg 81%
    10:00 +8°C° 1 mm 6 mps 752 mmHg 81%
    11:00 +9°C° 0.2 mm 6 mps 752 mmHg 79%
    12:00 +9°C° 0.2 mm 6 mps 752 mmHg 78%
    13:00 +9°C° 0.2 mm 6 mps 753 mmHg 76%
    14:00 +9°C° 1.4 mm 7 mps 754 mmHg 80%
    15:00 +7°C° 1.4 mm 8 mps 754 mmHg 83%
    16:00 +7°C° 1.4 mm 8 mps 755 mmHg 87%
    17:00 +7°C° 0.6 mm 8 mps 756 mmHg 84%
    18:00 +7°C° 0.6 mm 8 mps 757 mmHg 81%
    19:00 +7°C° 0.6 mm 8 mps 758 mmHg 78%
    20:00 +8°C° 0 mm 7 mps 758 mmHg 77%
    21:00 +8°C° 0 mm 6 mps 759 mmHg 76%
    22:00 +8°C° 0 mm 6 mps 760 mmHg 75%
    23:00 +8°C° 0 mm 5 mps 760 mmHg 76%

    Tomorrow, 2 June, Tuesday

    Time Temperature Precipitation Wind Pressure Humidity
    00:00 +7°C° 0 mm 4 mps 760 mmHg 77%
    01:00 +7°C° 0 mm 4 mps 760 mmHg 77%
    02:00 +8°C° 0 mm 3 mps 761 mmHg 78%
    03:00 +9°C° 0 mm 3 mps 761 mmHg 79%
    04:00 +9°C° 0 mm 2 mps 761 mmHg 79%
    05:00 +9°C° 0 mm 2 mps 761 mmHg 81%
    06:00 +9°C° 0 mm 2 mps 762 mmHg 82%
    07:00 +9°C° 0 mm 2 mps 762 mmHg 84%
    08:00 +10°C° 0 mm 3 mps 762 mmHg 82%
    09:00 +11°C° 0 mm 3 mps 763 mmHg 80%
    10:00 +12°C° 0 mm 4 mps 763 mmHg 79%
    11:00 +13°C° 0 mm 4 mps 763 mmHg 76%
    12:00 +13°C° 0 mm 4 mps 762 mmHg 73%
    13:00 +14°C° 0 mm 4 mps 762 mmHg 70%
    14:00 +14°C° 0.1 mm 4 mps 762 mmHg 71%
    15:00 +14°C° 0.1 mm 4 mps 762 mmHg 71%
    16:00 +13°C° 0.1 mm 4 mps 762 mmHg 72%
    17:00 +13°C° 0 mm 4 mps 763 mmHg 73%
    18:00 +12°C° 0 mm 4 mps 763 mmHg 75%
    19:00 +12°C° 0 mm 4 mps 763 mmHg 76%
    20:00 +12°C° 0 mm 4 mps 764 mmHg 77%
    21:00 +12°C° 0 mm 4 mps 764 mmHg 77%
    22:00 +12°C° 0 mm 4 mps 764 mmHg 78%
    23:00 +12°C° 0.1 mm 5 mps 764 mmHg 78%

    Day after tomorrow, 3 June, Wednesday

    Time Temperature Precipitation Wind Pressure Humidity
    00:00 +12°C° 0.1 mm 5 mps 764 mmHg 79%
    01:00 +11°C° 0.1 mm 6 mps 764 mmHg 79%
    02:00 +11°C° 0.1 mm 6 mps 765 mmHg 78%
    03:00 +10°C° 0.1 mm 5 mps 765 mmHg 77%
    04:00 +10°C° 0.1 mm 5 mps 766 mmHg 76%
    05:00 +10°C° 0.1 mm 5 mps 766 mmHg 76%
    06:00 +10°C° 0.1 mm 5 mps 767 mmHg 75%
    07:00 +9°C° 0.1 mm 5 mps 768 mmHg 75%
    08:00 +10°C° 0.1 mm 5 mps 768 mmHg 72%
    09:00 +10°C° 0.1 mm 5 mps 769 mmHg 69%
    10:00 +12°C° 0.1 mm 5 mps 770 mmHg 66%
    11:00 +12°C° 0 mm 5 mps 770 mmHg 64%
    12:00 +12°C° 0 mm 5 mps 770 mmHg 61%
    13:00 +12°C° 0 mm 5 mps 770 mmHg 59%
    14:00 +12°C° 0 mm 5 mps 770 mmHg 61%
    15:00 +12°C° 0 mm 4 mps 770 mmHg 62%
    16:00 +12°C° 0 mm 4 mps 771 mmHg 64%
    17:00 +11°C° 0 mm 4 mps 771 mmHg 66%
    18:00 +11°C° 0 mm 4 mps 771 mmHg 68%
    19:00 +10°C° 0 mm 3 mps 772 mmHg 69%
    20:00 +9°C° 0 mm 3 mps 772 mmHg 73%
    21:00 +9°C° 0 mm 2 mps 773 mmHg 77%
    22:00 +8°C° 0 mm 2 mps 773 mmHg 80%
    23:00 +8°C° 0 mm 2 mps 773 mmHg 81%

    4 June, Thursday

    Time Temperature Precipitation Wind Pressure Humidity
    00:00 +9°C° 0 mm 1 mps 773 mmHg 82%
    01:00 +8°C° 0 mm 1 mps 773 mmHg 83%
    02:00 +8°C° 0 mm 1 mps 773 mmHg 84%
    03:00 +8°C° 0 mm 1 mps 773 mmHg 86%
    04:00 +8°C° 0 mm 1 mps 773 mmHg 87%
    05:00 +7°C° 0 mm 1 mps 773 mmHg 87%
    06:00 +7°C° 0 mm 1 mps 773 mmHg 88%
    07:00 +7°C° 0 mm 1 mps 774 mmHg 88%
    08:00 +8°C° 0 mm 1 mps 774 mmHg 83%
    09:00 +10°C° 0 mm 1 mps 774 mmHg 78%
    10:00 +11°C° 0 mm 1 mps 774 mmHg 73%
    11:00 +12°C° 0 mm 1 mps 774 mmHg 66%
    12:00 +13°C° 0 mm 1 mps 773 mmHg 60%
    13:00 +15°C° 0 mm 1 mps 773 mmHg 53%
    14:00 +14°C° 0 mm 1 mps 772 mmHg 54%
    15:00 +14°C° 0 mm 1 mps 772 mmHg 56%
    16:00 +14°C° 0 mm 1 mps 772 mmHg 57%
    17:00 +13°C° 0 mm 1 mps 772 mmHg 62%
    18:00 +11°C° 0 mm 1 mps 772 mmHg 67%
    19:00 +9°C° 0 mm 0 mps 773 mmHg 73%
    20:00 +9°C° 0 mm 1 mps 773 mmHg 75%
    21:00 +9°C° 0 mm 1 mps 773 mmHg 77%
    22:00 +8°C° 0 mm 1 mps 773 mmHg 78%
    23:00 +8°C° 0 mm 1 mps 773 mmHg 79%

    5 June, Friday

    Time Temperature Precipitation Wind Pressure Humidity
    00:00 +8°C° 0 mm 1 mps 772 mmHg 79%
    01:00 +7°C° 0 mm 2 mps 772 mmHg 80%
    02:00 +6°C° 0 mm 2 mps 772 mmHg 80%
    03:00 +6°C° 0 mm 2 mps 771 mmHg 80%
    04:00 +6°C° 0 mm 2 mps 771 mmHg 80%
    05:00 +6°C° 0 mm 2 mps 771 mmHg 81%
    06:00 +6°C° 0 mm 2 mps 771 mmHg 81%
    07:00 +6°C° 0 mm 2 mps 772 mmHg 81%
    08:00 +7°C° 0 mm 2 mps 771 mmHg 76%
    09:00 +8°C° 0 mm 2 mps 771 mmHg 70%
    10:00 +10°C° 0 mm 2 mps 771 mmHg 65%
    11:00 +12°C° 0 mm 2 mps 771 mmHg 61%
    12:00 +14°C° 0 mm 2 mps 770 mmHg 58%
    13:00 +15°C° 0 mm 2 mps 769 mmHg 54%
    14:00 +15°C° 0 mm 2 mps 769 mmHg 56%
    15:00 +15°C° 0 mm 2 mps 768 mmHg 58%
    16:00 +14°C° 0 mm 2 mps 768 mmHg 60%
    17:00 +13°C° 0 mm 2 mps 768 mmHg 66%
    18:00 +12°C° 0 mm 2 mps 768 mmHg 71%
    19:00 +9°C° 0 mm 2 mps 769 mmHg 77%
    20:00 +9°C° 0 mm 2 mps 769 mmHg 78%
    21:00 +9°C° 0 mm 2 mps 768 mmHg 79%
    22:00 +8°C° 0 mm 3 mps 768 mmHg 80%
    23:00 +8°C° 0 mm 2 mps 768 mmHg 80%

    6 June, Saturday

    Time Temperature Precipitation Wind Pressure Humidity
    00:00 +8°C° 0 mm 2 mps 768 mmHg 81%
    01:00 +8°C° 0 mm 2 mps 768 mmHg 82%
    02:00 +8°C° 0 mm 2 mps 767 mmHg 81%
    03:00 +8°C° 0 mm 2 mps 767 mmHg 81%
    04:00 +8°C° 0 mm 2 mps 767 mmHg 80%
    05:00 +8°C° 0 mm 2 mps 767 mmHg 79%
    06:00 +8°C° 0 mm 2 mps 767 mmHg 78%
    07:00 +8°C° 0 mm 2 mps 767 mmHg 77%
    08:00 +9°C° 0 mm 2 mps 767 mmHg 75%
    09:00 +9°C° 0 mm 2 mps 767 mmHg 72%
    10:00 +10°C° 0 mm 2 mps 766 mmHg 69%
    11:00 +12°C° 0 mm 2 mps 766 mmHg 66%
    12:00 +13°C° 0 mm 2 mps 766 mmHg 62%
    13:00 +14°C° 0 mm 2 mps 765 mmHg 59%
    14:00 +14°C° 0 mm 2 mps 765 mmHg 60%
    15:00 +14°C° 0 mm 1 mps 765 mmHg 61%
    16:00 +14°C° 0 mm 1 mps 764 mmHg 61%
    17:00 +13°C° 0 mm 1 mps 765 mmHg 65%
    18:00 +12°C° 0 mm 2 mps 765 mmHg 69%
    19:00 +12°C° 0 mm 2 mps 765 mmHg 73%
    20:00 +10°C° 0 mm 2 mps 765 mmHg 75%
    21:00 +10°C° 0 mm 2 mps 765 mmHg 77%
    22:00 +10°C° 0 mm 2 mps 765 mmHg 78%
    23:00 +10°C° 0.6 mm 2 mps 765 mmHg 82%
    Show more